FW0183 Weather Reports


time (UTC)temp
C
wind
direction
speed
KPH
gust
KPH
rain 1hr
cm
rain 24hr
cm
rain mn
cm
humidity
%
barometer
mb
20260508141505 10 44 1.6 9.7 0.00 0.03 0.00 52 1020.4
20260508140044 8 47 4.8 9.7 0.00 0.03 0.00 53 1020.4
20260508134635 8 24 3.2 8.0 0.00 0.03 0.00 59 1020.4
20260508133028 6 5 1.6 4.8 0.00 0.03 0.00 64 1020.3
20260508131518 5 5 1.6 6.4 0.00 0.03 0.00 72 1020.1
20260508130004 4 5 3.2 4.8 0.00 0.03 0.00 87 1020.1
20260508124657 2 5 0.0 1.6 0.00 0.03 0.00 92 1020.2
20260508123043 1 9 0.0 4.8 0.00 0.03 0.00 94 1020.1
20260508121634 0 10 0.0 1.6 0.00 0.03 0.00 94 1020.2
20260508120012 0 10 0.0 4.8 0.00 0.03 0.00 95 1020.1
20260508114608 -1 9 0.0 1.6 0.00 0.03 0.00 94 1020.1
20260508113108 -2 5 0.0 3.2 0.00 0.03 0.00 94 1019.9
20260508111551 -3 5 0.0 0.0 0.00 0.03 0.00 93 1019.7
20260508110044 -3 360 0.0 3.2 0.00 0.03 0.00 93 1019.6
20260508104601 -3 5 0.0 6.4 0.00 0.03 0.00 91 1019.3
20260508103034 -3 5 0.0 3.2 0.00 0.03 0.00 91 1019.3
20260508101519 -2 5 0.0 0.0 0.00 0.03 0.00 92 1019.1
20260508100054 -3 5 0.0 0.0 0.00 0.03 0.00 92 1019.0
20260508094548 -2 5 0.0 0.0 0.00 0.03 0.00 90 1018.8
20260508093028 -2 5 0.0 0.0 0.00 0.03 0.00 92 1018.7
20260508091522 -2 5 0.0 6.4 0.00 0.03 0.00 92 1018.6
20260508090017 -2 10 3.2 8.0 0.00 0.03 0.00 89 1018.4
20260508084503 -1 11 0.0 0.0 0.00 0.03 0.00 89 1018.2
20260508083110 -1 16 0.0 0.0 0.00 0.03 0.00 89 1018.2
20260508081557 -1 11 0.0 0.0 0.00 0.03 0.00 88 1018.2
20260508080042 -1 360 0.0 3.2 0.00 0.03 0.00 87 1017.9
20260508074533 -1 360 0.0 3.2 0.00 0.03 0.03 88 1017.8
20260508073010 0 360 1.6 8.0 0.00 0.03 0.03 88 1017.7
20260508071501 0 360 0.0 3.2 0.00 0.03 0.03 87 1017.6
20260508070139 0 360 0.0 0.0 0.00 0.03 0.03 87 1017.3
20260508064556 0 360 0.0 0.0 0.00 0.03 0.03 86 1017.5
20260508063040 0 360 0.0 0.0 0.00 0.03 0.03 86 1017.3
20260508061631 0 360 0.0 1.6 0.00 0.03 0.03 84 1017.4
20260508060024 1 360 0.0 3.2 0.00 0.03 0.03 84 1017.6
20260508054520 1 360 0.0 9.7 0.00 0.05 0.03 83 1017.6
20260508053106 1 360 1.6 6.4 0.00 0.05 0.03 82 1017.6
20260508051551 2 360 3.2 6.4 0.00 0.05 0.03 79 1017.4
20260508050038 3 360 3.2 6.4 0.00 0.05 0.03 72 1017.1
20260508044528 5 13 0.0 6.4 0.00 0.05 0.03 69 1016.9
20260508043041 5 16 0.0 9.7 0.00 0.05 0.03 69 1016.5
20260508041514 5 17 3.2 8.0 0.00 0.05 0.03 70 1016.5
20260508040017 6 348 1.6 9.7 0.00 0.05 0.03 69 1016.5
20260508034600 6 32 1.6 6.4 0.00 0.05 0.03 70 1016.5
20260508033039 6 32 1.6 14.5 0.00 0.05 0.03 68 1016.3
20260508031532 6 30 1.6 8.0 0.00 0.05 0.03 69 1016.2
20260508030038 6 9 1.6 9.7 0.00 0.05 0.03 69 1016.1
20260508024527 6 288 4.8 14.5 0.00 0.08 0.03 70 1016.0
20260508023018 6 26 1.6 8.0 0.00 0.08 0.03 72 1015.7
20260508021506 6 26 3.2 9.7 0.00 0.08 0.03 72 1015.5
20260508013045 7 26 3.2 14.5 0.00 0.15 0.03 73 1014.7
20260508011520 7 298 1.6 12.9 0.00 0.15 0.03 76 1014.4
20260508010022 6 336 0.0 1.6 0.00 0.15 0.03 79 1014.4
20260508004550 7 336 0.0 0.0 0.00 0.46 0.03 75 1014.2
20260508003042 7 336 0.0 12.9 0.00 0.46 0.03 73 1014.1
20260508001521 8 304 3.2 12.9 0.00 0.46 0.03 72 1014.0
20260507234559 8 292 6.4 20.9 0.00 0.46 0.03 68 1013.9
20260507233050 8 317 3.2 9.7 0.00 0.46 0.03 68 1013.8
20260507231543 9 327 4.8 16.1 0.00 0.46 0.03 68 1013.6
20260507230037 9 336 4.8 17.7 0.00 0.46 0.03 66 1013.6
20260507224531 10 9 11.3 24.1 0.00 0.46 0.03 66 1013.5
20260507223024 10 336 6.4 17.7 0.00 0.46 0.03 68 1013.3
20260507221523 10 24 4.8 20.9 0.00 0.46 0.03 68 1013.1
20260507220016 10 331 3.2 17.7 0.00 0.46 0.03 68 1013.0
20260507214558 9 317 8.0 20.9 0.00 0.46 0.03 72 1012.9
20260507213059 9 314 11.3 19.3 0.00 0.46 0.03 73 1012.7
20260507211545 10 284 11.3 30.6 0.00 0.46 0.03 69 1012.6
20260507210036 10 279 16.1 24.1 0.00 0.46 0.03 69 1012.4
20260507204527 10 271 8.0 17.7 0.00 0.46 0.03 73 1012.3
20260507203019 8 246 4.8 24.1 0.00 0.46 0.03 79 1012.5
20260507201514 8 13 6.4 19.3 0.00 0.46 0.03 80 1012.8
20260507200006 7 360 16.1 30.6 0.00 0.46 0.03 81 1012.6
20260507194650 7 278 4.8 12.9 0.00 0.46 0.03 81 1012.6
20260507193041 7 51 1.6 14.5 0.00 0.46 0.03 82 1012.7
20260507191535 7 15 3.2 9.7 0.00 0.46 0.03 84 1012.8
20260507190030 7 30 4.8 14.5 0.00 0.46 0.03 83 1013.1
20260507184523 7 43 1.6 12.9 0.00 0.46 0.03 84 1012.9
20260507183035 7 265 3.2 19.3 0.00 0.46 0.03 84 1012.9
20260507181523 7 304 6.4 14.5 0.00 0.46 0.03 84 1012.9
20260507180020 7 350 3.2 12.9 0.00 0.46 0.03 83 1013.0
20260507174600 7 49 4.8 16.1 0.00 0.46 0.03 83 1012.7
20260507173156 7 303 1.6 14.5 0.00 0.46 0.03 85 1012.8
20260507171649 7 254 1.6 8.0 0.00 0.46 0.03 84 1012.7
20260507170041 7 309 1.6 9.7 0.00 0.46 0.03 86 1013.0
20260507164536 7 53 1.6 9.7 0.00 0.53 0.03 87 1012.6
20260507163028 7 41 3.2 12.9 0.00 0.53 0.03 87 1012.7
20260507161523 7 29 3.2 9.7 0.00 0.53 0.03 87 1012.8
20260507160028 6 26 1.6 9.7 0.00 0.53 0.03 88 1012.9
20260507154513 6 350 1.6 14.5 0.03 0.64 0.03 91 1012.7
20260507153007 6 50 8.0 16.1 0.03 0.64 0.03 91 1012.7
20260507151604 6 47 1.6 9.7 0.03 0.64 0.03 93 1012.8
20260507150053 6 46 1.6 4.8 0.03 0.64 0.03 92 1013.0
20260507144533 6 47 3.2 9.7 0.00 0.76 0.00 92 1012.9
20260507143038 6 44 4.8 17.7 0.00 0.76 0.00 92 1012.9